,,,PA_Meas_PMT16A,,PR_Meas_QMR101_102,,RH_Meas_QMH101,,SR_Meas_QMS101,,TA_Meas_QMH101,,GenWind,,GenWind,
date,time,status,PA,status,PR,status,RH,status,SR,status,TA,status,DirAvg,status,SpdAvg,
2009-03-25, 00:00:05,VALID,1011.15,VALID,0,VALID,84.3027,VALID,0,VALID,22.8757,VALID,126,VALID,0.580469,
2009-03-25, 00:01:05,VALID,1011.15,VALID,0,VALID,84.2875,VALID,0,VALID,22.8545,VALID,135,VALID,0.738281,
2009-03-25, 00:02:05,VALID,1011.13,VALID,0,VALID,84.2875,VALID,0.105969,VALID,22.8757,VALID,135,VALID,0.548047,
2009-03-25, 00:03:05,VALID,1011.1,VALID,0,VALID,84.2951,VALID,0,VALID,22.8545,VALID,135,VALID,0.402344,
2009-03-25, 00:04:05,VALID,1011.08,VALID,0,VALID,84.2951,VALID,0,VALID,22.8545,VALID,135,VALID,0.246094,
2009-03-25, 00:05:05,VALID,1011.04,VALID,0,VALID,84.3103,VALID,0,VALID,22.8562,VALID,135,VALID,0.185547,
2009-03-25, 00:06:05,VALID,1010.98,VALID,0,VALID,84.3332,VALID,0,VALID,22.8155,VALID,135,VALID,0.213672,
2009-03-25, 00:07:05,VALID,1010.97,VALID,0,VALID,84.3485,VALID,0,VALID,22.835,VALID,135,VALID,0.246484,
2009-03-25, 00:08:05,VALID,1010.93,VALID,0,VALID,84.3485,VALID,0,VALID,22.835,VALID,119,VALID,0.523828,
2009-03-25, 00:09:05,VALID,1010.9,VALID,0,VALID,84.3637,VALID,0,VALID,22.8155,VALID,112,VALID,0.291016,
2009-03-25, 00:10:05,VALID,1010.87,VALID,0,VALID,84.3866,VALID,0,VALID,22.835,VALID,112,VALID,0.15,
2009-03-25, 00:11:05,VALID,1010.85,VALID,0,VALID,84.3942,VALID,0,VALID,22.8562,VALID,112,VALID,0.351953,
2009-03-25, 00:12:05,VALID,1010.83,VALID,0,VALID,84.4171,VALID,0,VALID,22.835,VALID,112,VALID,0.0847656,
2009-03-25, 00:13:05,VALID,1010.8,VALID,0,VALID,84.4323,VALID,0.105969,VALID,22.8545,VALID,112,VALID,0.136328,
2009-03-25, 00:14:05,VALID,1010.79,VALID,0,VALID,84.44,VALID,0.105969,VALID,22.8545,VALID,135,VALID,0.554297,
2009-03-25, 00:15:05,VALID,1010.76,VALID,0,VALID,84.4323,VALID,0.105969,VALID,22.8333,VALID,139,VALID,0.565234,
2009-03-25, 00:16:05,VALID,1010.76,VALID,0,VALID,84.4476,VALID,0.105969,VALID,22.8545,VALID,158,VALID,0.660156,
2009-03-25, 00:17:05,VALID,1010.75,VALID,0,VALID,84.4247,VALID,0.105969,VALID,22.835,VALID,163,VALID,0.672656,
2009-03-25, 00:18:05,VALID,1010.74,VALID,0,VALID,84.4476,VALID,0.105969,VALID,22.7943,VALID,151,VALID,0.46875,
2009-03-25, 00:19:05,VALID,1010.74,VALID,0,VALID,84.4552,VALID,0.105969,VALID,22.7943,VALID,151,VALID,0.230469,
2009-03-25, 00:20:05,VALID,1010.73,VALID,0,VALID,84.4705,VALID,0.105969,VALID,22.7961,VALID,136,VALID,0.28125,
2009-03-25, 00:21:05,VALID,1010.72,VALID,0,VALID,84.4705,VALID,0.105969,VALID,22.7961,VALID,119,VALID,0,
2009-03-25, 00:22:05,VALID,1010.69,VALID,0,VALID,84.5162,VALID,0.105969,VALID,22.7749,VALID,119,VALID,0,
2009-03-25, 00:23:05,VALID,1010.69,VALID,0,VALID,84.5391,VALID,0.105969,VALID,22.7554,VALID,119,VALID,0,
2009-03-25, 00:24:05,VALID,1010.69,VALID,0,VALID,84.5772,VALID,0.105969,VALID,22.7766,VALID,119,VALID,0,
2009-03-25, 00:25:05,VALID,1010.66,VALID,0,VALID,84.6077,VALID,0.105969,VALID,22.7571,VALID,119,VALID,0,
2009-03-25, 00:26:05,VALID,1010.66,VALID,0,VALID,84.6459,VALID,0.105969,VALID,22.7554,VALID,121,VALID,0,
2009-03-25, 00:27:05,VALID,1010.68,VALID,0,VALID,84.6916,VALID,0.105969,VALID,22.7766,VALID,121,VALID,0,
2009-03-25, 00:28:05,VALID,1010.69,VALID,0,VALID,84.7145,VALID,0,VALID,22.7571,VALID,121,VALID,0,
2009-03-25, 00:29:05,VALID,1010.64,VALID,0,VALID,84.745,VALID,0,VALID,22.7783,VALID,121,VALID,0,
2009-03-25, 00:30:05,VALID,1010.65,VALID,0,VALID,84.7831,VALID,0,VALID,22.7571,VALID,121,VALID,0,
2009-03-25, 00:31:05,VALID,1010.66,VALID,0,VALID,84.7831,VALID,0,VALID,22.7978,VALID,121,VALID,0,
2009-03-25, 00:32:05,VALID,1010.62,VALID,0,VALID,84.8213,VALID,0,VALID,22.8173,VALID,167,VALID,0,
2009-03-25, 00:33:05,VALID,1010.6,VALID,0,VALID,84.867,VALID,0,VALID,22.8173,VALID,177,VALID,0,
2009-03-25, 00:34:05,VALID,1010.59,VALID,0,VALID,84.8746,VALID,0,VALID,22.7961,VALID,178,VALID,0,
2009-03-25, 00:35:05,VALID,1010.55,VALID,0,VALID,84.8746,VALID,0,VALID,22.7978,VALID,178,VALID,0,
2009-03-25, 00:36:05,VALID,1010.57,VALID,0,VALID,84.8899,VALID,0,VALID,22.7571,VALID,162,VALID,0.488672,
2009-03-25, 00:37:05,VALID,1010.54,VALID,0,VALID,84.867,VALID,0,VALID,22.7394,VALID,162,VALID,0.389844,
2009-03-25, 00:38:05,VALID,1010.53,VALID,0,VALID,84.8746,VALID,0,VALID,22.7199,VALID,160,VALID,0.476563,
2009-03-25, 00:39:05,VALID,1010.51,VALID,0,VALID,84.9051,VALID,0,VALID,22.7394,VALID,157,VALID,0.362891,
2009-03-25, 00:40:05,VALID,1010.49,VALID,0,VALID,84.9661,VALID,0,VALID,22.7182,VALID,157,VALID,0.347656,
2009-03-25, 00:41:05,VALID,1010.48,VALID,0,VALID,84.9967,VALID,0,VALID,22.7376,VALID,157,VALID,0.4875,
2009-03-25, 00:42:05,VALID,1010.49,VALID,0,VALID,85.0348,VALID,0,VALID,22.7376,VALID,160,VALID,0.476172,
2009-03-25, 00:43:05,VALID,1010.46,VALID,0,VALID,85.05,VALID,0,VALID,22.7588,VALID,160,VALID,0.499609,
2009-03-25, 00:44:05,VALID,1010.46,VALID,0,VALID,85.0805,VALID,0,VALID,22.7588,VALID,151,VALID,0.326172,
2009-03-25, 00:45:05,VALID,1010.45,VALID,0,VALID,85.1339,VALID,0,VALID,22.7376,VALID,151,VALID,0.316797,
2009-03-25, 00:46:05,VALID,1010.45,VALID,0,VALID,85.1339,VALID,0,VALID,22.7783,VALID,148,VALID,0.553906,
2009-03-25, 00:47:05,VALID,1010.45,VALID,0,VALID,85.1644,VALID,0,VALID,22.7783,VALID,150,VALID,0.816797,
2009-03-25, 00:48:05,VALID,1010.43,VALID,0,VALID,85.1949,VALID,0,VALID,22.7571,VALID,149,VALID,0.730859,
2009-03-25, 00:49:05,VALID,1010.4,VALID,0,VALID,85.1949,VALID,0,VALID,22.7766,VALID,145,VALID,0.825391,
2009-03-25, 00:50:05,VALID,1010.41,VALID,0,VALID,85.2178,VALID,0,VALID,22.7571,VALID,151,VALID,0.55,
2009-03-25, 00:51:05,VALID,1010.42,VALID,0,VALID,85.2407,VALID,0,VALID,22.7766,VALID,143,VALID,0.733984,
2009-03-25, 00:52:05,VALID,1010.41,VALID,0,VALID,85.233,VALID,0,VALID,22.7978,VALID,128,VALID,0.846875,
2009-03-25, 00:53:05,VALID,1010.43,VALID,0,VALID,85.2635,VALID,0,VALID,22.7766,VALID,149,VALID,0.540625,
2009-03-25, 00:54:05,VALID,1010.42,VALID,0,VALID,85.2559,VALID,0,VALID,22.7978,VALID,169,VALID,0.865234,
2009-03-25, 00:55:05,VALID,1010.42,VALID,0,VALID,85.2635,VALID,0,VALID,22.7766,VALID,146,VALID,0.525,
2009-03-25, 00:56:05,VALID,1010.42,VALID,0,VALID,85.2559,VALID,0,VALID,22.7978,VALID,144,VALID,0.548437,
2009-03-25, 00:57:05,VALID,1010.4,VALID,0,VALID,85.2635,VALID,0,VALID,22.7978,VALID,161,VALID,0.696484,
2009-03-25, 00:58:05,VALID,1010.4,VALID,0,VALID,85.2483,VALID,0,VALID,22.7978,VALID,161,VALID,0.907031,
2009-03-25, 00:59:05,VALID,1010.38,VALID,0,VALID,85.2635,VALID,0,VALID,22.7978,VALID,167,VALID,0.529688,
2009-03-25, 01:00:05,VALID,1010.38,VALID,0,VALID,85.2788,VALID,0,VALID,22.7571,VALID,169,VALID,0.737109,
2009-03-25, 01:01:05,VALID,1010.34,VALID,0,VALID,85.2864,VALID,0,VALID,22.7978,VALID,151,VALID,0.518359,
2009-03-25, 01:02:05,VALID,1010.34,VALID,0,VALID,85.2712,VALID,0,VALID,22.7978,VALID,126,VALID,0.842188,
2009-03-25, 01:03:05,VALID,1010.34,VALID,0,VALID,85.2712,VALID,0,VALID,22.7783,VALID,124,VALID,0.875781,
2009-03-25, 01:04:05,VALID,1010.28,VALID,0,VALID,85.2788,VALID,0,VALID,22.7978,VALID,127,VALID,1.43633,
2009-03-25, 01:05:05,VALID,1010.26,VALID,0,VALID,85.2788,VALID,0,VALID,22.7961,VALID,133,VALID,0.871094,
2009-03-25, 01:06:05,VALID,1010.24,VALID,0,VALID,85.2941,VALID,0,VALID,22.8173,VALID,132,VALID,0.973437,
2009-03-25, 01:07:05,VALID,1010.24,VALID,0,VALID,85.2864,VALID,0,VALID,22.8173,VALID,121,VALID,1.09648,
2009-03-25, 01:08:05,VALID,1010.23,VALID,0,VALID,85.3017,VALID,0,VALID,22.8155,VALID,117,VALID,0.402734,
2009-03-25, 01:09:05,VALID,1010.23,VALID,0,VALID,85.2788,VALID,0,VALID,22.8155,VALID,96,VALID,0.821484,
2009-03-25, 01:10:05,VALID,1010.21,VALID,0,VALID,85.2712,VALID,0,VALID,22.8173,VALID,106,VALID,0.726563,
2009-03-25, 01:11:05,VALID,1010.2,VALID,0,VALID,85.2864,VALID,0,VALID,22.8155,VALID,115,VALID,0.486328,
2009-03-25, 01:12:05,VALID,1010.16,VALID,0,VALID,85.2559,VALID,0,VALID,22.8155,VALID,118,VALID,0.414453,
2009-03-25, 01:13:05,VALID,1010.17,VALID,0,VALID,85.2483,VALID,0,VALID,22.7961,VALID,127,VALID,1.0543,
2009-03-25, 01:14:05,VALID,1010.17,VALID,0,VALID,85.2254,VALID,0,VALID,22.7961,VALID,139,VALID,1.23125,
2009-03-25, 01:15:05,VALID,1010.14,VALID,0,VALID,85.233,VALID,0,VALID,22.7961,VALID,125,VALID,0.869922,
2009-03-25, 01:16:05,VALID,1010.14,VALID,0,VALID,85.2178,VALID,0,VALID,22.7766,VALID,128,VALID,1.09922,
2009-03-25, 01:17:05,VALID,1010.15,VALID,0,VALID,85.1949,VALID,0,VALID,22.7978,VALID,134,VALID,0.636328,
2009-03-25, 01:18:05,VALID,1010.13,VALID,0,VALID,85.2025,VALID,0,VALID,22.8173,VALID,130,VALID,0.638281,
2009-03-25, 01:19:05,VALID,1010.13,VALID,0,VALID,85.2025,VALID,0,VALID,22.7961,VALID,131,VALID,0.365625,
2009-03-25, 01:20:05,VALID,1010.14,VALID,0,VALID,85.172,VALID,0,VALID,22.7766,VALID,132,VALID,0.591797,
2009-03-25, 01:21:05,VALID,1010.14,VALID,0,VALID,85.1797,VALID,0,VALID,22.7978,VALID,131,VALID,0.383594,
2009-03-25, 01:22:05,VALID,1010.15,VALID,0,VALID,85.1644,VALID,0,VALID,22.7978,VALID,131,VALID,0,
2009-03-25, 01:23:05,VALID,1010.15,VALID,0,VALID,85.1949,VALID,0,VALID,22.7766,VALID,131,VALID,0,
2009-03-25, 01:24:05,VALID,1010.15,VALID,0,VALID,85.1949,VALID,0,VALID,22.7978,VALID,94,VALID,0.529688,
2009-03-25, 01:25:05,VALID,1010.14,VALID,0,VALID,85.1797,VALID,0,VALID,22.7978,VALID,89,VALID,0.594922,
2009-03-25, 01:26:05,VALID,1010.13,VALID,0,VALID,85.1797,VALID,0,VALID,22.7961,VALID,103,VALID,0.358594,
2009-03-25, 01:27:05,VALID,1010.14,VALID,0,VALID,85.1568,VALID,0.105969,VALID,22.7766,VALID,114,VALID,0.586328,
2009-03-25, 01:28:05,VALID,1010.13,VALID,0,VALID,85.1415,VALID,0,VALID,22.7961,VALID,99,VALID,0.680859,
2009-03-25, 01:29:04,VALID,1010.13,VALID,0,VALID,85.1492,VALID,0,VALID,22.8173,VALID,93,VALID,0.289063,
2009-03-25, 01:30:04,VALID,1010.13,VALID,0,VALID,85.111,VALID,0,VALID,22.8173,VALID,93,VALID,0,
2009-03-25, 01:31:04,VALID,1010.14,VALID,0,VALID,85.1034,VALID,0,VALID,22.8173,VALID,93,VALID,0,
2009-03-25, 01:32:04,VALID,1010.14,VALID,0,VALID,85.0729,VALID,0,VALID,22.8155,VALID,93,VALID,0,
2009-03-25, 01:33:04,VALID,1010.11,VALID,0,VALID,85.0805,VALID,0,VALID,22.8155,VALID,93,VALID,0,
2009-03-25, 01:34:04,VALID,1010.07,VALID,0,VALID,85.0577,VALID,0,VALID,22.8368,VALID,92,VALID,0,
2009-03-25, 01:35:04,VALID,1010.08,VALID,0,VALID,85.0424,VALID,0,VALID,22.7961,VALID,91,VALID,0,
2009-03-25, 01:36:04,VALID,1010.08,VALID,0,VALID,85.0424,VALID,0,VALID,22.8173,VALID,78,VALID,0,
2009-03-25, 01:37:04,VALID,1010.06,VALID,0,VALID,85.0119,VALID,0,VALID,22.7978,VALID,78,VALID,0,
2009-03-25, 01:38:04,VALID,1010.07,VALID,0,VALID,85.0272,VALID,0,VALID,22.7766,VALID,67,VALID,0,
2009-03-25, 01:39:04,VALID,1010.04,VALID,0,VALID,85.0195,VALID,0,VALID,22.7783,VALID,62,VALID,0.458203,
2009-03-25, 01:40:04,VALID,1010.06,VALID,0,VALID,85.0272,VALID,0,VALID,22.7783,VALID,62,VALID,0.283594,
2009-03-25, 01:41:04,VALID,1010.04,VALID,0,VALID,85.0043,VALID,0,VALID,22.7783,VALID,62,VALID,0,
2009-03-25, 01:42:04,VALID,1010.04,VALID,0,VALID,84.9967,VALID,0,VALID,22.7783,VALID,62,VALID,0,
2009-03-25, 01:43:04,VALID,1010.02,VALID,0,VALID,85.0195,VALID,0,VALID,22.7588,VALID,58,VALID,0,
2009-03-25, 01:44:04,VALID,1010.03,VALID,0,VALID,85.0119,VALID,0,VALID,22.7783,VALID,58,VALID,0,
2009-03-25, 01:45:04,VALID,1010,VALID,0,VALID,85.0043,VALID,0,VALID,22.7588,VALID,58,VALID,0,
2009-03-25, 01:46:04,VALID,1009.98,VALID,0,VALID,85.0272,VALID,0,VALID,22.7376,VALID,58,VALID,0,
2009-03-25, 01:47:04,VALID,1009.96,VALID,0,VALID,85.0119,VALID,0,VALID,22.7182,VALID,58,VALID,0,
2009-03-25, 01:48:04,VALID,1009.93,VALID,0,VALID,85.0348,VALID,0,VALID,22.7394,VALID,58,VALID,0,
2009-03-25, 01:49:04,VALID,1009.94,VALID,0,VALID,85.0424,VALID,0,VALID,22.7394,VALID,58,VALID,0,
2009-03-25, 01:50:04,VALID,1009.94,VALID,0,VALID,85.0653,VALID,0,VALID,22.7394,VALID,59,VALID,0.410156,
2009-03-25, 01:51:04,VALID,1009.93,VALID,0,VALID,85.0729,VALID,0,VALID,22.7182,VALID,59,VALID,0.580078,
2009-03-25, 01:52:04,VALID,1009.9,VALID,0,VALID,85.0882,VALID,0,VALID,22.6987,VALID,76,VALID,0.483203,
2009-03-25, 01:53:04,VALID,1009.94,VALID,0,VALID,85.1187,VALID,0.105969,VALID,22.7182,VALID,68,VALID,0.585156,
2009-03-25, 01:54:04,VALID,1009.91,VALID,0,VALID,85.111,VALID,0,VALID,22.6792,VALID,68,VALID,0.2125,
2009-03-25, 01:55:04,VALID,1009.93,VALID,0,VALID,85.111,VALID,0,VALID,22.7004,VALID,73,VALID,0.403125,
2009-03-25, 01:56:04,VALID,1009.9,VALID,0,VALID,85.1263,VALID,0,VALID,22.7004,VALID,68,VALID,0.560547,
2009-03-25, 01:57:04,VALID,1009.89,VALID,0,VALID,85.1263,VALID,0,VALID,22.7004,VALID,68,VALID,0.211328,
2009-03-25, 01:58:04,VALID,1009.85,VALID,0,VALID,85.1644,VALID,0,VALID,22.6792,VALID,68,VALID,0.000390625,
2009-03-25, 01:59:04,VALID,1009.81,VALID,0,VALID,85.1492,VALID,0,VALID,22.7004,VALID,68,VALID,0,
2009-03-25, 02:00:04,VALID,1009.81,VALID,0,VALID,85.1797,VALID,0,VALID,22.6597,VALID,68,VALID,0.683594,
2009-03-25, 02:01:04,VALID,1009.83,VALID,0,VALID,85.1797,VALID,0,VALID,22.6597,VALID,85,VALID,0.519531,
2009-03-25, 02:02:04,VALID,1009.82,VALID,0,VALID,85.1797,VALID,0,VALID,22.6614,VALID,85,VALID,0,
2009-03-25, 02:03:04,VALID,1009.81,VALID,0,VALID,85.2102,VALID,0,VALID,22.6809,VALID,83,VALID,0,
2009-03-25, 02:04:04,VALID,1009.82,VALID,0,VALID,85.2025,VALID,0,VALID,22.6402,VALID,81,VALID,0,
2009-03-25, 02:05:04,VALID,1009.81,VALID,0,VALID,85.233,VALID,0,VALID,22.6614,VALID,80,VALID,0.474609,
2009-03-25, 02:06:04,VALID,1009.79,VALID,0,VALID,85.2407,VALID,0,VALID,22.6614,VALID,80,VALID,0.329688,
2009-03-25, 02:07:04,VALID,1009.79,VALID,0,VALID,85.2407,VALID,0,VALID,22.642,VALID,47,VALID,0.547656,
2009-03-25, 02:08:04,VALID,1009.8,VALID,0,VALID,85.2712,VALID,0,VALID,22.642,VALID,67,VALID,0.222266,
2009-03-25, 02:09:04,VALID,1009.78,VALID,0,VALID,85.2635,VALID,0,VALID,22.642,VALID,56,VALID,0.709375,
2009-03-25, 02:10:04,VALID,1009.79,VALID,0,VALID,85.2712,VALID,0,VALID,22.6225,VALID,55,VALID,0.797266,
2009-03-25, 02:11:04,VALID,1009.75,VALID,0,VALID,85.2712,VALID,0,VALID,22.6225,VALID,61,VALID,0.536719,
2009-03-25, 02:12:04,VALID,1009.74,VALID,0,VALID,85.3169,VALID,0,VALID,22.6225,VALID,61,VALID,0.0625,
2009-03-25, 02:13:04,VALID,1009.74,VALID,0,VALID,85.3093,VALID,0,VALID,22.6225,VALID,56,VALID,0,
2009-03-25, 02:14:04,VALID,1009.72,VALID,0,VALID,85.3169,VALID,0,VALID,22.5818,VALID,50,VALID,0,
2009-03-25, 02:15:04,VALID,1009.7,VALID,0,VALID,85.3246,VALID,0,VALID,22.603,VALID,39,VALID,0,
2009-03-25, 02:16:04,VALID,1009.69,VALID,0,VALID,85.3322,VALID,0,VALID,22.603,VALID,61,VALID,0,
2009-03-25, 02:17:04,VALID,1009.69,VALID,0,VALID,85.3246,VALID,0,VALID,22.5623,VALID,71,VALID,0,
2009-03-25, 02:18:04,VALID,1009.68,VALID,0,VALID,85.3474,VALID,0,VALID,22.5835,VALID,68,VALID,0,
2009-03-25, 02:19:04,VALID,1009.67,VALID,0,VALID,85.3551,VALID,0,VALID,22.5623,VALID,68,VALID,0,
2009-03-25, 02:20:04,VALID,1009.68,VALID,0,VALID,85.3703,VALID,0,VALID,22.5623,VALID,68,VALID,0,
2009-03-25, 02:21:04,VALID,1009.64,VALID,0,VALID,85.3779,VALID,0,VALID,22.5835,VALID,39,VALID,0,
2009-03-25, 02:22:04,VALID,1009.63,VALID,0,VALID,85.3856,VALID,0,VALID,22.564,VALID,41,VALID,0,
2009-03-25, 02:23:04,VALID,1009.63,VALID,0,VALID,85.4008,VALID,0,VALID,22.5429,VALID,41,VALID,0,
2009-03-25, 02:24:04,VALID,1009.65,VALID,0,VALID,85.3856,VALID,0,VALID,22.5446,VALID,82,VALID,0,
2009-03-25, 02:25:04,VALID,1009.62,VALID,0,VALID,85.4084,VALID,0,VALID,22.564,VALID,82,VALID,0,
2009-03-25, 02:26:04,VALID,1009.62,VALID,0,VALID,85.4084,VALID,0,VALID,22.564,VALID,82,VALID,0,
2009-03-25, 02:27:04,VALID,1009.63,VALID,0,VALID,85.4313,VALID,0,VALID,22.5234,VALID,82,VALID,0,
2009-03-25, 02:28:04,VALID,1009.6,VALID,0,VALID,85.4313,VALID,0,VALID,22.5234,VALID,71,VALID,0,
2009-03-25, 02:29:04,VALID,1009.58,VALID,0,VALID,85.4313,VALID,0,VALID,22.5234,VALID,348,VALID,0,
2009-03-25, 02:30:04,VALID,1009.54,VALID,0,VALID,85.4694,VALID,0.105969,VALID,22.5234,VALID,348,VALID,0,
2009-03-25, 02:31:04,VALID,1009.53,VALID,0,VALID,85.4771,VALID,0,VALID,22.5251,VALID,64,VALID,0,
2009-03-25, 02:32:04,VALID,1009.51,VALID,0,VALID,85.4923,VALID,0,VALID,22.5251,VALID,63,VALID,0,
2009-03-25, 02:33:04,VALID,1009.52,VALID,0,VALID,85.4999,VALID,0,VALID,22.5056,VALID,55,VALID,0,
2009-03-25, 02:34:04,VALID,1009.5,VALID,0,VALID,85.4999,VALID,0,VALID,22.5056,VALID,55,VALID,0,
2009-03-25, 02:35:04,VALID,1009.52,VALID,0,VALID,85.5228,VALID,0,VALID,22.5056,VALID,52,VALID,0,
2009-03-25, 02:36:04,VALID,1009.5,VALID,0,VALID,85.5076,VALID,0,VALID,22.5056,VALID,44,VALID,0,
2009-03-25, 02:37:04,VALID,1009.5,VALID,0,VALID,85.5228,VALID,0,VALID,22.5056,VALID,44,VALID,0,
2009-03-25, 02:38:04,VALID,1009.49,VALID,0,VALID,85.5457,VALID,0,VALID,22.5056,VALID,44,VALID,0,
2009-03-25, 02:39:04,VALID,1009.49,VALID,0,VALID,85.561,VALID,0,VALID,22.5056,VALID,44,VALID,0,
2009-03-25, 02:40:04,VALID,1009.46,VALID,0,VALID,85.5533,VALID,0,VALID,22.5056,VALID,45,VALID,0,
2009-03-25, 02:41:04,VALID,1009.46,VALID,0,VALID,85.5533,VALID,0,VALID,22.4861,VALID,45,VALID,0,
2009-03-25, 02:42:04,VALID,1009.45,VALID,0,VALID,85.5838,VALID,0,VALID,22.4861,VALID,40,VALID,0,
2009-03-25, 02:43:04,VALID,1009.43,VALID,0,VALID,85.5762,VALID,0,VALID,22.4667,VALID,40,VALID,0,
2009-03-25, 02:44:04,VALID,1009.44,VALID,0,VALID,85.5838,VALID,0,VALID,22.4861,VALID,40,VALID,0,
2009-03-25, 02:45:04,VALID,1009.44,VALID,0,VALID,85.5991,VALID,0,VALID,22.4667,VALID,40,VALID,0,
2009-03-25, 02:46:04,VALID,1009.42,VALID,0,VALID,85.5838,VALID,0,VALID,22.4667,VALID,40,VALID,0,
2009-03-25, 02:47:04,VALID,1009.45,VALID,0,VALID,85.5991,VALID,0,VALID,22.4667,VALID,40,VALID,0,
2009-03-25, 02:48:04,VALID,1009.43,VALID,0,VALID,85.5991,VALID,0,VALID,22.4667,VALID,40,VALID,0,
2009-03-25, 02:49:04,VALID,1009.41,VALID,0,VALID,85.6067,VALID,0,VALID,22.4861,VALID,40,VALID,0,
2009-03-25, 02:50:04,VALID,1009.42,VALID,0,VALID,85.6296,VALID,0,VALID,22.4472,VALID,40,VALID,0,
2009-03-25, 02:51:04,VALID,1009.45,VALID,0,VALID,85.6296,VALID,0,VALID,22.4667,VALID,72,VALID,0,
2009-03-25, 02:52:04,VALID,1009.43,VALID,0,VALID,85.6372,VALID,0,VALID,22.4667,VALID,72,VALID,0,
2009-03-25, 02:53:04,VALID,1009.45,VALID,0,VALID,85.6525,VALID,0,VALID,22.4667,VALID,72,VALID,0,
2009-03-25, 02:54:04,VALID,1009.43,VALID,0,VALID,85.6677,VALID,0,VALID,22.4455,VALID,72,VALID,0,
2009-03-25, 02:55:04,VALID,1009.44,VALID,0,VALID,85.6601,VALID,0,VALID,22.4667,VALID,72,VALID,0,
2009-03-25, 02:56:04,VALID,1009.45,VALID,0,VALID,85.6753,VALID,0,VALID,22.4667,VALID,70,VALID,0,
2009-03-25, 02:57:04,VALID,1009.44,VALID,0,VALID,85.6906,VALID,0,VALID,22.4667,VALID,57,VALID,0,
2009-03-25, 02:58:04,VALID,1009.43,VALID,0,VALID,85.6906,VALID,0.105969,VALID,22.4455,VALID,42,VALID,0,
2009-03-25, 02:59:04,VALID,1009.42,VALID,0,VALID,85.6753,VALID,0.105969,VALID,22.4455,VALID,41,VALID,0.26875,
2009-03-25, 03:00:04,VALID,1009.44,VALID,0,VALID,85.683,VALID,0.105969,VALID,22.4455,VALID,41,VALID,0.245703,
2009-03-25, 03:01:04,VALID,1009.44,VALID,0,VALID,85.6906,VALID,0.105969,VALID,22.426,VALID,41,VALID,0.0230469,
2009-03-25, 03:02:04,VALID,1009.44,VALID,0,VALID,85.6906,VALID,0.105969,VALID,22.426,VALID,41,VALID,0,
2009-03-25, 03:03:04,VALID,1009.45,VALID,0,VALID,85.7135,VALID,0.105969,VALID,22.426,VALID,41,VALID,0.0648438,
2009-03-25, 03:04:04,VALID,1009.44,VALID,0,VALID,85.6906,VALID,0.105969,VALID,22.4065,VALID,41,VALID,0,
2009-03-25, 03:05:04,VALID,1009.43,VALID,0,VALID,85.7211,VALID,0.105969,VALID,22.426,VALID,41,VALID,0,
2009-03-25, 03:06:04,VALID,1009.44,VALID,0,VALID,85.7211,VALID,0.105969,VALID,22.426,VALID,41,VALID,0,
2009-03-25, 03:07:04,VALID,1009.43,VALID,0,VALID,85.7058,VALID,0,VALID,22.4065,VALID,41,VALID,0,
2009-03-25, 03:08:04,VALID,1009.42,VALID,0,VALID,85.7287,VALID,0,VALID,22.4065,VALID,41,VALID,0,
2009-03-25, 03:09:04,VALID,1009.41,VALID,0,VALID,85.7211,VALID,0.105969,VALID,22.4082,VALID,41,VALID,0,
2009-03-25, 03:10:04,VALID,1009.42,VALID,0,VALID,85.7287,VALID,0.105969,VALID,22.4065,VALID,41,VALID,0,
2009-03-25, 03:11:04,VALID,1009.38,VALID,0,VALID,85.7287,VALID,0.105969,VALID,22.4065,VALID,40,VALID,0,
2009-03-25, 03:12:04,VALID,1009.38,VALID,0,VALID,85.7363,VALID,0,VALID,22.387,VALID,41,VALID,0,
2009-03-25, 03:13:04,VALID,1009.39,VALID,0,VALID,85.7592,VALID,0,VALID,22.4277,VALID,41,VALID,0,
2009-03-25, 03:14:04,VALID,1009.39,VALID,0,VALID,85.7516,VALID,0,VALID,22.387,VALID,41,VALID,0,
2009-03-25, 03:15:04,VALID,1009.38,VALID,0,VALID,85.744,VALID,0,VALID,22.387,VALID,41,VALID,0,
2009-03-25, 03:16:04,VALID,1009.4,VALID,0,VALID,85.7592,VALID,0,VALID,22.3887,VALID,41,VALID,0,
2009-03-25, 03:17:04,VALID,1009.4,VALID,0,VALID,85.7592,VALID,0,VALID,22.3887,VALID,41,VALID,0,
2009-03-25, 03:18:04,VALID,1009.43,VALID,0,VALID,85.7745,VALID,0,VALID,22.3887,VALID,41,VALID,0,
2009-03-25, 03:19:04,VALID,1009.41,VALID,0,VALID,85.7745,VALID,0,VALID,22.3887,VALID,41,VALID,0,
2009-03-25, 03:20:04,VALID,1009.46,VALID,0,VALID,85.7974,VALID,0,VALID,22.3693,VALID,41,VALID,0,
2009-03-25, 03:21:04,VALID,1009.49,VALID,0,VALID,85.805,VALID,0,VALID,22.3693,VALID,41,VALID,0,
2009-03-25, 03:22:04,VALID,1009.5,VALID,0,VALID,85.7745,VALID,0,VALID,22.3693,VALID,41,VALID,0,
2009-03-25, 03:23:04,VALID,1009.53,VALID,0,VALID,85.7897,VALID,0,VALID,22.3693,VALID,41,VALID,0,
2009-03-25, 03:24:04,VALID,1009.55,VALID,0,VALID,85.8126,VALID,0,VALID,22.3693,VALID,41,VALID,0,
2009-03-25, 03:25:04,VALID,1009.56,VALID,0,VALID,85.7974,VALID,0,VALID,22.3693,VALID,41,VALID,0,
2009-03-25, 03:26:04,VALID,1009.6,VALID,0,VALID,85.8126,VALID,0,VALID,22.3693,VALID,41,VALID,0,
2009-03-25, 03:27:04,VALID,1009.62,VALID,0,VALID,85.8279,VALID,0,VALID,22.3693,VALID,41,VALID,0,
2009-03-25, 03:28:04,VALID,1009.65,VALID,0,VALID,85.8355,VALID,0,VALID,22.3887,VALID,41,VALID,0,
2009-03-25, 03:29:04,VALID,1009.65,VALID,0,VALID,85.8355,VALID,0,VALID,22.3887,VALID,125,VALID,0,
2009-03-25, 03:30:04,VALID,1009.7,VALID,0,VALID,85.8507,VALID,0,VALID,22.4099,VALID,127,VALID,0,
2009-03-25, 03:31:04,VALID,1009.71,VALID,0,VALID,85.8431,VALID,0,VALID,22.3887,VALID,128,VALID,0,
2009-03-25, 03:32:04,VALID,1009.71,VALID,0,VALID,85.8279,VALID,0,VALID,22.4082,VALID,127,VALID,0,
2009-03-25, 03:33:04,VALID,1009.73,VALID,0,VALID,85.8507,VALID,0,VALID,22.4082,VALID,127,VALID,0,
2009-03-25, 03:34:04,VALID,1009.71,VALID,0,VALID,85.8584,VALID,0,VALID,22.4294,VALID,127,VALID,0,
2009-03-25, 03:35:04,VALID,1009.73,VALID,0,VALID,85.8584,VALID,0,VALID,22.4065,VALID,128,VALID,0,
2009-03-25, 03:36:04,VALID,1009.73,VALID,0,VALID,85.866,VALID,0,VALID,22.4277,VALID,128,VALID,0,
2009-03-25, 03:37:04,VALID,1009.73,VALID,0,VALID,85.8584,VALID,0,VALID,22.4277,VALID,127,VALID,0,
2009-03-25, 03:38:04,VALID,1009.75,VALID,0,VALID,85.8507,VALID,0,VALID,22.4082,VALID,127,VALID,0,
2009-03-25, 03:39:04,VALID,1009.73,VALID,0,VALID,85.8431,VALID,0,VALID,22.3887,VALID,127,VALID,0,
2009-03-25, 03:40:04,VALID,1009.77,VALID,0,VALID,85.8584,VALID,0,VALID,22.3887,VALID,128,VALID,0,
2009-03-25, 03:41:04,VALID,1009.77,VALID,0,VALID,85.8431,VALID,0,VALID,22.3887,VALID,128,VALID,0,
2009-03-25, 03:42:04,VALID,1009.77,VALID,0,VALID,85.8507,VALID,0,VALID,22.3887,VALID,127,VALID,0,
2009-03-25, 03:43:04,VALID,1009.76,VALID,0,VALID,85.8431,VALID,0,VALID,22.3887,VALID,128,VALID,0,
2009-03-25, 03:44:04,VALID,1009.76,VALID,0,VALID,85.8431,VALID,0,VALID,22.3693,VALID,127,VALID,0,
2009-03-25, 03:45:04,VALID,1009.77,VALID,0,VALID,85.8431,VALID,0,VALID,22.3693,VALID,128,VALID,0,
2009-03-25, 03:46:04,VALID,1009.79,VALID,0,VALID,85.8507,VALID,0,VALID,22.3887,VALID,168,VALID,0,
2009-03-25, 03:47:04,VALID,1009.8,VALID,0,VALID,85.8279,VALID,0,VALID,22.3676,VALID,170,VALID,0,
2009-03-25, 03:48:04,VALID,1009.79,VALID,0,VALID,85.8507,VALID,0,VALID,22.387,VALID,184,VALID,0,
2009-03-25, 03:49:04,VALID,1009.79,VALID,0,VALID,85.8431,VALID,0,VALID,22.3676,VALID,206,VALID,0.632813,
2009-03-25, 03:50:04,VALID,1009.85,VALID,0,VALID,85.8584,VALID,0.105969,VALID,22.387,VALID,208,VALID,0.657031,
2009-03-25, 03:51:04,VALID,1009.81,VALID,0,VALID,85.8507,VALID,0.105969,VALID,22.387,VALID,214,VALID,0.727734,
2009-03-25, 03:52:04,VALID,1009.82,VALID,0,VALID,85.8507,VALID,0,VALID,22.4082,VALID,218,VALID,0.539063,